Wind_Speed
123 126 130 131 129 124 125 125 124 121 119 121 118 116 114 109 109 118 115 114 111 109 103 98 96 95 96 97 98 96 95 94 92 94 95 93 92 90 91 91 91 91 90
123 124 128 133 132 128 124 125 124 122 117 120 117 118 119 119 117 108 115 116 110 107 105 105 100 98 98 99 100 100 100 100 99 98 94 92 93 93 92 91 92 92 92
120 125 128 134 136 132 128 127 126 125 123 121 121 120 121 121 122 123 120 116 114 113 114 111 109 104 103 103 104 104 104 102 101 101 102 101 101 100 99 99 98 96 94
117 122 123 127 134 134 130 128 126 126 126 124 123 124 126 127 125 120 120 120 121 122 119 117 113 110 108 108 106 106 108 105 104 103 103 103 102 102 102 102 102 102 102
113 117 120 123 129 136 136 132 129 127 127 127 128 128 127 129 128 126 121 118 119 122 120 119 116 113 111 110 110 110 109 108 106 104 104 104 105 106 105 104 104 105 105
107 113 119 120 124 131 137 138 134 133 131 131 131 132 130 130 131 129 127 128 127 124 120 119 117 113 113 112 112 111 109 108 108 106 107 106 107 108 107 107 108 109 108
102 109 113 116 120 124 133 140 141 138 136 135 135 134 133 134 133 133 134 134 127 125 124 123 122 121 119 116 115 115 113 112 111 110 109 108 109 110 111 113 115 113 113
100 105 112 117 119 121 125 131 141 144 141 139 138 136 135 135 135 135 134 134 127 126 126 125 124 122 120 119 119 118 117 114 113 117 109 113 114 113 115 118 118 117 118
95 98 102 106 111 115 120 125 129 139 147 145 142 140 139 139 137 136 134 132 129 127 127 127 126 126 124 124 123 121 119 118 118 120 117 116 117 115 114 115 116 117 116
88 94 99 103 106 110 115 117 121 128 137 147 150 146 144 143 141 139 135 132 131 129 128 128 127 127 125 126 125 122 121 119 120 119 119 118 116 114 114 118 118 118 118
82 87 92 96 100 105 108 113 118 124 129 134 141 150 149 148 147 144 140 136 133 130 128 128 126 126 127 126 125 123 122 122 121 120 119 118 117 118 119 120 120 121 120
78 81 84 88 92 96 101 106 110 114 118 123 130 135 141 150 151 149 145 142 139 134 130 128 127 127 128 127 126 124 123 123 122 120 120 121 121 122 124 124 123 123 122
78 81 84 86 89 91 94 98 101 104 108 112 118 122 128 133 141 151 150 146 143 140 136 134 131 128 127 127 126 127 127 126 124 125 124 124 125 125 125 125 126 126 125
76 78 81 85 87 89 91 94 96 99 101 103 106 109 114 119 128 133 140 148 149 146 143 139 136 133 130 128 127 126 126 127 127 127 128 129 129 128 128 129 130 130 130
72 76 78 81 84 86 88 90 91 93 95 98 101 104 107 111 115 120 126 132 139 144 147 146 144 140 137 135 133 131 130 128 128 128 128 129 129 131 127 128 129 129 129
69 70 72 75 78 81 85 88 89 90 91 92 93 96 99 102 106 110 115 121 125 129 134 142 147 147 145 142 140 138 136 134 133 133 133 133 133 134 134 133 132 133 136
69 72 74 75 77 78 80 83 84 86 87 89 90 91 93 95 97 100 103 107 112 117 122 127 131 136 141 144 146 146 145 144 143 140 139 140 140 141 141 140 141 140 139
63 66 68 70 72 74 77 79 81 82 84 86 87 88 89 90 91 93 95 98 100 104 108 113 116 118 121 123 126 130 134 137 140 141 143 144 143 144 145 146 145 142 139
61 62 61 63 67 70 73 75 78 79 80 83 84 85 87 88 89 90 90 91 92 94 95 98 100 103 105 107 110 112 115 117 118 120 122 122 123 123 123 124 124 124 122
53 54 57 59 62 64 65 69 72 75 77 79 81 83 86 87 88 89 90 90 90 91 92 94 94 94 96 97 98 100 101 101 103 104 104 106 106 106 107 106 105 105 104
46 49 51 53 56 58 61 63 64 66 69 73 77 79 82 84 86 88 89 90 90 91 92 92 92 92 92 92 93 94 95 96 95 96 97 96 97 97 97 97 98 98 97
42 43 44 46 50 52 54 57 60 62 64 66 69 71 74 77 79 82 84 86 87 88 89 90 91 91 92 92 93 93 93 93 92 92 91 92 92 93 93 93 93 92 91
40 41 42 43 45 47 49 52 54 57 59 62 63 65 66 68 70 72 74 76 78 81 84 86 87 88 88 88 89 90 90 91 91 90 89 89 88 89 88 87 86 85 84
41 42 43 44 44 44 46 48 49 52 56 58 60 61 62 62 64 65 67 69 70 72 74 75 77 78 80 81 82 82 82 82 82 82 82 81 81 81 80 79 77 76 75
39 40 40 42 44 44 44 45 46 47 49 51 55 57 59 59 60 61 62 62 64 65 66 67 68 69 70 71 72 73 72 72 72 73 72 72 72 72 71 70 69 68 67
40 41 42 43 43 42 43 43 42 44 45 46 48 51 54 56 57 58 58 59 59 60 61 61 61 61 61 62 62 63 64 64 64 64 63 63 62 61 60 59 58 58 57
Wind_Direction
215 217 218 219 223 223 224 226 227 227 226 229 230 233 232 233 234 243 244 242 243 244 244 245 247 249 249 250 250 251 253 255 258 261 262 263 266 267 267 267 269 271 273
214 217 217 218 221 222 224 226 226 227 224 225 226 227 229 231 234 237 241 244 244 243 245 247 248 248 249 248 251 253 254 255 254 253 256 259 262 264 265 266 267 268 269
215 216 219 218 217 222 223 225 226 227 227 226 227 226 227 232 235 238 239 242 243 243 246 246 247 248 248 248 249 251 253 254 256 259 262 265 267 269 271 272 272 275 275
215 216 219 220 219 219 223 224 226 227 228 227 228 229 228 229 230 234 239 244 244 246 247 248 249 250 250 250 251 252 253 254 256 258 261 263 264 265 266 268 270 272 273
218 219 220 220 221 219 219 223 225 227 229 228 229 230 232 231 232 234 236 238 243 248 248 249 250 252 253 254 255 255 256 257 257 258 260 262 265 265 266 267 268 270 272
218 219 219 221 222 222 221 221 224 226 227 230 230 231 232 234 236 237 237 238 241 245 248 250 251 251 252 253 254 254 255 256 257 258 260 261 263 266 267 269 270 270 272
220 220 221 222 222 223 223 222 222 226 227 229 231 232 232 233 235 236 239 242 244 247 248 250 252 252 253 253 254 255 255 256 257 258 259 261 262 264 266 267 267 269 270
223 223 222 222 224 224 224 225 225 225 227 229 231 233 234 235 236 237 238 241 242 244 246 247 250 252 253 254 254 254 256 257 258 259 260 261 263 264 266 268 269 270 271
224 225 226 227 227 227 228 228 228 227 227 229 231 232 234 236 237 238 240 241 242 242 244 245 247 250 251 253 255 256 257 258 259 261 262 262 264 265 267 268 269 270 272
225 226 226 227 228 228 230 231 231 231 230 229 230 233 235 237 238 239 240 240 242 243 244 245 246 248 250 251 253 255 257 258 259 260 262 263 265 266 267 268 270 271 273
223 225 227 228 229 230 231 232 232 232 233 233 233 233 234 237 239 240 240 241 242 243 244 245 246 247 248 250 252 254 255 257 259 260 261 263 264 266 266 267 270 272 272
226 227 228 229 230 230 231 232 233 233 234 234 236 236 236 236 238 241 242 243 243 244 245 246 246 247 249 250 252 254 256 257 258 260 262 263 265 266 267 269 270 271 273
225 226 228 229 230 231 233 234 233 234 235 235 235 236 238 239 239 239 241 243 245 246 247 247 248 249 250 251 252 254 255 256 258 260 261 263 265 266 268 269 270 272 273
227 228 228 229 231 232 233 234 235 235 236 236 236 237 239 239 240 241 241 242 244 245 247 249 250 251 252 252 253 254 255 256 258 260 261 263 265 266 268 269 270 272 274
232 233 233 233 232 233 234 235 237 237 238 238 239 239 239 240 241 241 243 244 245 245 246 247 249 250 251 253 255 255 256 258 260 261 263 264 265 267 269 270 272 273 275
234 235 236 236 237 237 237 237 237 238 239 240 240 240 241 241 241 242 243 244 245 246 246 247 248 250 251 253 254 255 257 258 260 262 263 265 266 267 269 270 272 273 273
237 237 236 236 236 236 236 238 239 240 240 240 241 241 242 242 243 243 243 244 244 245 246 247 248 250 251 253 254 256 257 258 260 261 261 262 263 265 267 269 271 273 273
243 242 242 242 243 243 242 241 240 239 239 241 241 242 241 242 243 244 245 246 246 247 247 248 249 251 252 253 254 255 256 258 259 260 262 263 265 266 267 269 271 272 273
242 244 244 243 243 242 242 242 243 243 243 243 242 242 243 243 243 244 245 245 246 247 248 249 250 250 251 253 254 255 256 257 258 259 261 262 263 264 265 266 267 268 270
246 245 244 243 243 244 244 244 244 243 243 243 243 243 243 243 243 244 244 245 246 247 248 248 249 249 250 252 253 254 255 256 256 257 259 260 261 263 264 266 267 268 270
246 246 245 246 245 243 243 243 243 243 243 242 243 243 243 243 244 244 245 245 246 247 248 249 249 249 250 251 252 253 255 256 257 258 260 261 263 264 265 266 267 269 271
250 249 248 246 247 246 243 242 242 242 243 242 242 242 243 243 244 244 245 246 246 247 247 248 249 250 250 251 252 253 254 256 257 258 259 261 262 263 265 267 268 270 272
254 254 253 250 247 247 246 244 242 242 242 243 243 243 242 242 243 243 244 244 245 247 248 248 249 250 251 252 253 254 255 256 257 258 259 261 262 264 265 267 268 270 272
253 254 255 255 253 250 248 247 244 242 242 242 243 243 243 242 243 242 243 244 244 245 246 247 249 250 251 252 253 254 255 256 257 258 260 261 262 264 266 269 271 272 274
257 256 256 255 254 255 252 250 249 247 244 243 243 244 244 243 242 243 243 243 243 244 244 245 246 247 249 250 252 254 255 256 257 258 259 261 263 265 267 269 270 272 273
261 258 257 256 256 254 254 254 251 248 247 245 243 243 244 244 243 243 243 243 244 244 245 246 247 247 247 248 250 251 253 255 256 258 259 261 263 264 265 267 268 270 271
Height
10218 10235 10258 10276 10296 10318 10332 10345 10365 10383 10394 10403 10419 10431 10431 10435 10440 10449 10467 10476 10491 10500 10508 10515 10520 10525 10531 10536 10540 10545 10549 10553 10556 10558 10560 10564 10568 10570 10572 10572 10573 10574 10575
10195 10213 10232 10252 10270 10294 10312 10324 10340 10357 10369 10380 10395 10409 10412 10416 10423 10432 10436 10456 10469 10478 10483 10489 10497 10502 10510 10515 10521 10525 10527 10530 10535 10537 10539 10544 10548 10550 10550 10550 10551 10553 10555
10174 10188 10204 10222 10245 10264 10285 10301 10316 10332 10346 10357 10369 10387 10393 10399 10406 10411 10417 10431 10441 10448 10455 10464 10473 10481 10487 10491 10497 10502 10506 10511 10516 10521 10524 10527 10529 10531 10531 10531 10533 10536 10535
10153 10168 10185 10205 10226 10248 10263 10280 10296 10311 10326 10338 10349 10362 10371 10375 10382 10390 10398 10407 10415 10423 10432 10443 10451 10458 10465 10470 10476 10481 10486 10492 10496 10502 10507 10509 10509 10509 10510 10508 10511 10511 10509
10133 10151 10168 10182 10199 10218 10237 10254 10271 10288 10301 10316 10329 10337 10350 10358 10364 10371 10379 10385 10387 10397 10410 10421 10429 10437 10445 10450 10456 10461 10466 10472 10477 10483 10487 10487 10486 10485 10486 10488 10487 10486 10488
10116 10130 10140 10159 10177 10196 10216 10231 10245 10261 10274 10286 10300 10310 10322 10332 10341 10349 10355 10360 10368 10377 10388 10396 10406 10417 10422 10427 10431 10438 10443 10448 10453 10457 10459 10461 10460 10462 10464 10464 10461 10461 10469
10095 10108 10126 10141 10154 10170 10187 10205 10221 10233 10247 10259 10271 10283 10295 10304 10314 10325 10331 10335 10351 10358 10366 10373 10380 10387 10395 10404 10409 10414 10419 10425 10429 10431 10435 10438 10436 10440 10439 10437 10435 10438 10442
10075 10088 10100 10112 10130 10148 10162 10178 10194 10209 10220 10232 10244 10256 10267 10278 10288 10297 10307 10314 10331 10338 10345 10351 10356 10364 10371 10375 10381 10385 10394 10400 10406 10401 10416 10411 10412 10415 10415 10412 10414 10414 10414
10059 10073 10086 10100 10114 10127 10140 10153 10166 10180 10195 10207 10216 10227 10238 10248 10258 10268 10280 10291 10302 10313 10321 10327 10332 10339 10345 10349 10356 10361 10369 10375 10379 10377 10384 10386 10386 10390 10392 10389 10389 10388 10388
10045 10056 10065 10078 10092 10106 10118 10130 10141 10153 10166 10179 10190 10200 10209 10218 10229 10241 10252 10263 10274 10285 10295 10301 10307 10313 10318 10323 10329 10336 10342 10348 10350 10354 10354 10357 10364 10367 10366 10359 10361 10361 10362
10029 10037 10046 10057 10068 10079 10092 10104 10116 10128 10139 10152 10165 10176 10187 10192 10201 10212 10223 10236 10246 10255 10265 10274 10281 10286 10291 10297 10304 10312 10317 10318 10323 10328 10331 10335 10339 10340 10336 10333 10335 10337 10336
10014 10023 10031 10039 10048 10057 10065 10076 10088 10101 10112 10123 10134 10145 10157 10168 10175 10183 10194 10206 10215 10229 10239 10245 10251 10257 10263 10271 10279 10285 10290 10293 10298 10303 10307 10308 10310 10309 10308 10309 10311 10309 10309
9996 10003 10011 10019 10027 10036 10044 10053 10062 10072 10082 10093 10104 10115 10126 10137 10148 10159 10168 10177 10187 10197 10207 10216 10224 10232 10240 10247 10255 10258 10264 10268 10272 10276 10278 10279 10280 10282 10286 10282 10281 10283 10284
9978 9985 9993 10001 10008 10016 10024 10030 10039 10048 10057 10068 10078 10088 10099 10108 10119 10128 10139 10150 10160 10169 10178 10186 10195 10203 10212 10220 10224 10231 10237 10241 10245 10249 10251 10251 10253 10257 10257 10256 10256 10255 10254
9964 9970 9977 9984 9991 9998 10005 10013 10020 10028 10037 10046 10054 10064 10073 10082 10091 10101 10111 10120 10130 10141 10151 10160 10168 10175 10182 10187 10194 10203 10207 10212 10217 10219 10223 10226 10226 10222 10230 10230 10226 10226 10226
9947 9954 9960 9966 9972 9979 9985 9991 9998 10006 10014 10023 10032 10040 10048 10056 10064 10073 10082 10091 10101 10110 10120 10129 10138 10146 10153 10160 10167 10173 10179 10184 10188 10191 10195 10198 10198 10197 10197 10199 10200 10200 10197
9928 9932 9936 9942 9949 9955 9962 9970 9978 9985 9992 9999 10008 10016 10024 10032 10039 10047 10055 10063 10073 10082 10089 10098 10106 10114 10122 10130 10137 10143 10149 10153 10157 10162 10166 10168 10171 10171 10170 10171 10171 10170 10167
9910 9914 9919 9926 9931 9937 9943 9948 9954 9961 9968 9975 9983 9991 9999 10006 10014 10022 10030 10038 10046 10052 10059 10068 10076 10085 10092 10099 10106 10111 10116 10120 10124 10129 10132 10135 10138 10139 10139 10141 10141 10139 10136
9893 9896 9903 9908 9912 9916 9921 9926 9933 9939 9946 9952 9960 9967 9973 9981 9988 9994 10003 10011 10019 10026 10035 10042 10049 10056 10063 10069 10074 10079 10083 10088 10093 10096 10100 10103 10104 10106 10108 10109 10109 10108 10107
9879 9882 9885 9889 9893 9897 9902 9906 9912 9917 9923 9929 9935 9941 9948 9956 9963 9970 9977 9985 9992 9999 10006 10014 10021 10028 10034 10040 10045 10050 10055 10059 10062 10066 10070 10073 10076 10078 10079 10081 10082 10081 10081
9863 9865 9869 9872 9875 9879 9883 9888 9891 9896 9901 9906 9912 9918 9925 9932 9939 9946 9953 9961 9968 9973 9980 9987 9994 10001 10007 10013 10018 10022 10026 10031 10036 10040 10044 10048 10050 10052 10054 10055 10055 10055 10056
9848 9850 9853 9856 9858 9862 9866 9869 9873 9877 9882 9887 9891 9897 9902 9910 9916 9924 9931 9938 9945 9951 9956 9962 9968 9974 9981 9987 9993 9998 10003 10007 10012 10017 10021 10023 10026 10028 10030 10031 10032 10033 10034
9834 9836 9838 9841 9843 9845 9849 9852 9855 9859 9864 9868 9873 9878 9883 9890 9895 9902 9908 9915 9921 9927 9933 9939 9945 9951 9957 9964 9970 9976 9981 9986 9990 9993 9998 10001 10004 10006 10008 10010 10012 10013 10013
9821 9823 9824 9826 9828 9831 9833 9836 9839 9843 9846 9851 9855 9859 9865 9871 9876 9881 9887 9893 9899 9905 9910 9916 9922 9929 9935 9941 9947 9953 9958 9963 9968 9972 9976 9979 9982 9984 9987 9989 9991 9991 9992
9809 9810 9811 9812 9812 9814 9817 9820 9823 9826 9830 9834 9839 9843 9848 9854 9859 9864 9869 9875 9880 9885 9890 9896 9902 9908 9915 9920 9926 9931 9937 9942 9946 9950 9954 9958 9961 9965 9968 9970 9971 9972 9972
9794 9795 9796 9797 9797 9798 9800 9803 9806 9810 9813 9817 9822 9827 9831 9837 9842 9847 9852 9857 9863 9868 9873 9879 9885 9891 9897 9902 9908 9914 9919 9924 9928 9933 9937 9941 9944 9947 9949 9952 9953 9953 9954